"Pseudo-MPEC" for ZTF03gM

Created 2019 Jun 19 17:07:52 UT using Find_Orb

Click here for an explanation of pseudo-MPECs

 
 Astrometry: 
     ZTF03gM  C2019 06 10.17230308 44 44.52 +47 20 52.2    ~6AHM 19.14r NEOCPI41
     ZTF03gM  C2019 06 10.17561308 44 44.96 +47 20 54.3    ~6AHM 19.10r NEOCPI41
     ZTF03gM  C2019 06 10.17838008 44 45.36 +47 20 56.0    ~6AHM 18.67r NEOCPI41
     ZTF03gM  C2019 06 10.18115708 44 45.72 +47 20 58.0    ~6AHM 18.99r NEOCPI41
     ZTF03gM KC2019 06 10h20QM.yM6Y,nWMItS7dxNX$dgoDU'.,TKoSR_2^Sie#E`V]$.e\.K88
     ZTF03gM KC2019 06 10laM30Kh7ZOk+xx]]du6-;mR!JiY2Uu!WH4gsV$S_I87!OteKeL@XK88
     ZTF03gM KC2019 06 10$A\nTo#pDXMlF:?rMueSP;N;@mA`KF[.n5WK`!)3G)(@+Tm!PYUNK88
     ZTF03gM KC2019 06 11]vnP=.!=CceXt6Os,PhqbBdcLwr-%U]M+T[ar$$77yN/N!o%X]P@K88
     ZTF03gM KC2019 06 11n],lV9q1Pyq+Z2W96n*iv9x/wVF'PLug3ACLm/#lZbLF??\3IL0=K88
     ZTF03gM KC2019 06 11DburLSwif?gl2vo$01*VP$lM(jDJ7wmPk-dt.PJX.4iljtp]lDUtK88
     ZTF03gM KC2019 06 11hL9c46WR@9\@hDplVX'JKtAbf?r:-D2aFjrR0NkFn3E!va!!fOBOK88
     ZTF03gM |C2019 06 12o;!/EA#,gGY?2-e2VxWtX3K?hL,H5gc6we5rBu:DT3VbxhQl/g=)H06
     ZTF03gM |C2019 06 12/Ci'kXo.nlN)dJ$XnYlJuDmmuG__hWBw1%FiNT7@\t^-xq!1c`-MH06
     ZTF03gM |C2019 06 12S]tmvJm$)LJL%ct;]3H5*J!mP;TWok+gGf+:Dhgo:ANWinO8^3_FH06
     ZTF03gM KC2019 06 124#I.emU+SIPujy62Mm(W.jJ9Jp98s='\f6hAstrometrys`rnPK^V01
     ZTF03gM KC2019 06 12x,DnHUWHy'a#RT%q4a.redacted;TwPM7HvBMZ^Kf]s48P682Qo,V01
     ZTF03gM KC2019 06 121CWF*e\;(s=click$oj^To%7C9)M*u9[kWAVUSV9r1Oh9I_q*ULSV01
     ZTF03gM KC2019 06 124=vN!$2v=GAOCx^vTwHeMjXPPOH4_OgsF!Gv3Dm5?BXqTLXVk_GJK88
     ZTF03gM KC2019 06 125QS7e8f,f3Jg4FU2njR6HIqVOO2A4YE#0xnOk5\W`D6here-SIUCK88
     ZTF03gM KC2019 06 16!kE$b!TkhOYGN62L+;qtwNv^M2E[$6kIo.%#SmRgn#Z,bv$\s,XW104
     ZTF03gM KC2019 06 16YEV:Vrquf0C=mu*Ubv;JL?aFL?W_d4SEjKpFG60GYNo.Xect;$Eh104
     ZTF03gM KC2019 06 16x`h$YE=x3qCXBm$C)5kc:Ju%gJ@EIbC/P!hP?fc6cA2VV95!URo%104
     ZTF03gM KC2019 06 16'tFQnforl1icakR7drUT\vf8PvRewaqlAS@g*i3explanation_#204
     ZTF03gM HC2019 06 16H;HT-2Mbf/8,!i]-.Zo'63!WqDkVDnY:pgG(n/HW!.Yjk@yiY-%l204

Station data:
(104) San Marcello Pistoiese  (N44.063037 E10.804200)  Italy. 0.40-m f/5
   reflector.
(204) Schiaparelli Observatory  (N45.867933 E8.770800)  Italy.  Observer L.
   Buzzi. 0.60-m f/4.64 Newtonian + CCD.
(H06) RAS Observatory, Mayhill  (N32.903325 W105.528700)  US/New
   Mexico.  Observers E. Guido, G. Sostero, V. Gonano, L. Donato.
(I41) Palomar Mountain--ZTF  (N33.357340 W116.859780)  US/California. 1.2-m
   f/2.44 Oschin Schmidt + CCD.
(K88) GINOP-KHK, Piszkéstető  (N47.917622 E19.893600)  Hungary.  Observer K.
   Sárneczky. 0.60-m Schmidt + CCD.
(V01) Mountainville Observatory, Alpine  (N40.448904 W111.760890)  US/Utah.

Orbital elements:  ZTF03gM
   Perihelion 2019 Aug 7.871590 +/- 0.148 TT = 20:55:05 (JD 2458703.371590)
Epoch 2019 Jun 16.0 TT = JDT 2458650.5   Earth MOID: 0.2604   Ve: 0.0107
M 234.29973956 +/- 0.027            Me: 0.0198                AutoNEOCP
n   2.37746323 +/- 0.00644          Peri.  213.83064 +/- 0.11
a   0.55598128 +/- 0.001            Node   178.92641 +/- 0.16
e   0.4279778 +/- 0.00241           Incl.   29.42816 +/- 0.17
P   0.41/151.42d           H 17.3   G  0.15   U  9.4  
q 0.31803362 +/- 0.00191    Q 0.79392895 +/- 9.5e-5
From 24 observations 2019 June 10-16; mean residual 0".29
Residuals in arcseconds: 
190610 I41  .15+  .18-    190611 K88  .36+  .34+    190612 V01  .10-  .30+    
190610 I41  .05-  .14-    190611 K88  .06-  .44+    190612 K88  .33-  .06-    
190610 I41  .11+  .17-    190611 K88  .21+  .51+    190612 K88  .14-  .21-    
190610 I41  .15-  .10+    190612 H06  .02+  .02-    190616 104  .13-  .36-    
190610 K88  .29-  .63+    190612 H06  .10+  .05+    190616 104  .12-  .01+    
190610 K88  .60-  .36-    190612 H06  .28+  .12+    190616 104  .26-  .34+    
190610 K88  .38+  .36+    190612 V01  .20+  .83-    190616 204  .31+  .09-    
190611 K88  .16+  .09+    190612 V01  .24-  .45-    190616 204  .14+  .16+    

Ephemerides (geocentric):
Date (UTC) HH   RA              Dec         delta   r     elong  mag " sig PA
---- -- -- --  -------------   -----------  ------ ------ -----  --- ---- ---
2019 06 19 17  09 00 06.901   +48 46 00.97  .63006 .72249  44.9 19.0 .808 118
2019 06 19 18  09 00 08.896   +48 46 17.03  .63003 .72226  44.8 19.0 .825 118
2019 06 19 19  09 00 10.871   +48 46 33.04  .63001 .72204  44.8 19.0 .842 117
2019 06 19 20  09 00 12.827   +48 46 48.98  .62999 .72181  44.8 19.0 .859 117
2019 06 19 21  09 00 14.764   +48 47 04.86  .62997 .72158  44.8 19.0 .877 117
2019 06 19 22  09 00 16.681   +48 47 20.68  .62995 .72135  44.8 19.0 .895 117
2019 06 19 23  09 00 18.578   +48 47 36.43  .62992 .72112  44.7 19.0 .913 116
2019 06 20 00  09 00 20.456   +48 47 52.13  .62990 .72090  44.7 19.0 .931 116
2019 06 20 01  09 00 22.315   +48 48 07.76  .62988 .72067  44.7 19.0 .949 116
2019 06 20 02  09 00 24.154   +48 48 23.33  .62985 .72044  44.7 19.0 .968 116
2019 06 20 03  09 00 25.973   +48 48 38.84  .62983 .72021  44.7 19.0 .986 115
2019 06 20 04  09 00 27.773   +48 48 54.28  .62981 .71998  44.6 19.0 1.01 115
2019 06 20 05  09 00 29.554   +48 49 09.66  .62978 .71975  44.6 19.0 1.02 115
2019 06 20 06  09 00 31.314   +48 49 24.98  .62976 .71952  44.6 19.0 1.04 115
2019 06 20 07  09 00 33.055   +48 49 40.24  .62973 .71929  44.6 19.0 1.06 115
2019 06 20 08  09 00 34.777   +48 49 55.43  .62971 .71905  44.5 19.0 1.08 114
2019 06 20 09  09 00 36.478   +48 50 10.56  .62969 .71882  44.5 19.0 1.10 114
2019 06 20 10  09 00 38.160   +48 50 25.62  .62966 .71859  44.5 19.0 1.12 114
2019 06 20 11  09 00 39.822   +48 50 40.62  .62963 .71836  44.5 19.0 1.14 114
2019 06 20 12  09 00 41.464   +48 50 55.56  .62961 .71813  44.5 19.0 1.16 114
2019 06 20 13  09 00 43.087   +48 51 10.44  .62958 .71789  44.4 19.0 1.18 113
2019 06 20 14  09 00 44.689   +48 51 25.24  .62956 .71766  44.4 19.0 1.20 113
2019 06 20 15  09 00 46.272   +48 51 39.99  .62953 .71742  44.4 19.0 1.23 113
2019 06 20 16  09 00 47.835   +48 51 54.67  .62951 .71719  44.4 19.0 1.25 113
2019 06 20 17  09 00 49.378   +48 52 09.28  .62948 .71696  44.3 19.0 1.27 113
2019 06 20 18  09 00 50.901   +48 52 23.83  .62945 .71672  44.3 19.0 1.29 112
2019 06 20 19  09 00 52.404   +48 52 38.32  .62943 .71648  44.3 19.0 1.31 112
2019 06 20 20  09 00 53.887   +48 52 52.74  .62940 .71625  44.3 19.1 1.33 112
2019 06 20 21  09 00 55.350   +48 53 07.09  .62937 .71601  44.3 19.1 1.36 112
2019 06 20 22  09 00 56.793   +48 53 21.38  .62934 .71578  44.2 19.1 1.38 112
2019 06 20 23  09 00 58.216   +48 53 35.60  .62932 .71554  44.2 19.1 1.40 111
2019 06 21 00  09 00 59.619   +48 53 49.76  .62929 .71530  44.2 19.1 1.42 111
2019 06 21 01  09 01 01.002   +48 54 03.85  .62926 .71506  44.2 19.1 1.45 111
2019 06 21 02  09 01 02.365   +48 54 17.88  .62923 .71483  44.1 19.1 1.47 111
2019 06 21 03  09 01 03.707   +48 54 31.83  .62920 .71459  44.1 19.1 1.49 111
2019 06 21 04  09 01 05.029   +48 54 45.72  .62917 .71435  44.1 19.1 1.52 111
2019 06 21 05  09 01 06.331   +48 54 59.55  .62915 .71411  44.1 19.1 1.54 110
2019 06 21 06  09 01 07.613   +48 55 13.30  .62912 .71387  44.1 19.1 1.56 110
2019 06 21 07  09 01 08.875   +48 55 26.99  .62909 .71363  44.0 19.1 1.59 110
2019 06 21 08  09 01 10.116   +48 55 40.61  .62906 .71339  44.0 19.1 1.61 110
2019 06 21 09  09 01 11.337   +48 55 54.17  .62903 .71315  44.0 19.1 1.64 110
2019 06 21 10  09 01 12.537   +48 56 07.65  .62900 .71291  44.0 19.1 1.66 110
2019 06 21 11  09 01 13.717   +48 56 21.07  .62897 .71267  43.9 19.1 1.69 109
2019 06 21 12  09 01 14.877   +48 56 34.42  .62894 .71242  43.9 19.1 1.71 109
2019 06 21 13  09 01 16.017   +48 56 47.70  .62891 .71218  43.9 19.1 1.74 109
2019 06 21 14  09 01 17.136   +48 57 00.91  .62888 .71194  43.9 19.1 1.76 109
2019 06 21 15  09 01 18.234   +48 57 14.05  .62884 .71170  43.9 19.1 1.79 109
2019 06 21 16  09 01 19.312   +48 57 27.13  .62881 .71145  43.8 19.1 1.81 109